Retour au catalogue

STARLINK-35696

ActifCommunicationsVLEO
NORAD 66489·PAYLOAD·🇺🇸 United States

Lancé Nov 15, 2025 depuis Cape Canaveral Space Force Station

Loading…

Prochains Passages (prochaines 24 heures)

TLE

FraisSource: CelesTrak SupGP

Époque: Sep 14, 2026, 22:58 UTC

1 66489C 25263E   26257.95743056 -.00012252  00000+0 -44372-3 0  2575
2 66489  43.0038   1.8033 0001751 270.7191 140.8243 15.27588823    11

Suivez STARLINK-35696 en temps réel avec AllMySat

Download on the App Store